Lapse_Rate
2.7 3.5 3.7 3.7 1.9 2.4 2.2 1.7 1.4 0.8 1.7 2.0 2.0 2.1 1.8 1.2 -0.7 -1.1 -0.2 0.5 1.6 2.1 1.2 0.9 1.2 0.9 -0.0 0.3 0.8 1.0 2.0 0.8 0.2 1.4 2.5 3.3 4.1 3.8 3.7 4.0 4.4 5.2 5.6
3.6 3.0 2.5 3.8 2.2 2.5 2.1 1.6 1.3 1.1 1.3 1.5 2.2 2.8 2.1 2.1 0.9 0.8 0.6 1.1 1.7 2.1 0.9 0.3 -0.4 -0.1 -0.1 -0.0 0.0 0.3 1.2 1.4 0.7 1.2 2.2 4.9 5.0 3.9 4.3 3.8 4.0 2.5 3.2
2.7 2.3 2.8 3.0 1.8 2.1 1.9 1.4 1.2 1.5 1.6 1.9 1.9 2.2 2.3 2.3 1.5 0.8 -0.0 1.0 2.1 1.9 1.3 0.9 0.5 -0.9 -1.2 -0.8 -0.3 -0.1 0.3 1.1 1.2 1.3 2.2 4.2 4.2 4.9 5.9 3.5 3.3 3.2 2.8
3.9 2.5 2.5 1.9 1.9 2.2 2.5 2.3 2.2 2.6 2.6 2.6 3.0 2.7 1.2 1.9 1.1 0.6 0.7 0.9 2.3 1.9 1.9 1.4 0.9 -0.6 -1.2 -1.2 -0.5 -0.2 -0.2 0.2 0.3 1.4 2.2 1.2 1.7 3.7 5.9 4.6 3.8 3.5 2.5
5.3 4.3 4.2 2.6 0.6 1.6 1.2 2.5 2.7 3.0 2.9 3.3 3.2 3.6 2.9 2.5 1.6 1.0 1.4 1.2 1.6 2.7 2.5 1.7 0.4 -0.8 -1.4 -1.3 -0.9 -0.9 -1.1 -0.9 -0.6 -0.1 0.7 0.6 0.1 0.3 2.5 3.9 4.1 3.6 2.9
5.1 5.4 3.7 2.9 1.7 1.6 2.4 3.0 3.4 3.2 3.3 3.5 2.9 3.1 3.1 3.0 2.0 1.0 1.4 1.0 1.2 1.3 2.4 1.8 0.5 0.3 -0.8 -1.1 -1.6 -1.6 -1.2 -1.6 -1.2 -0.9 -0.5 -0.4 0.0 0.5 0.8 1.3 1.8 3.3 3.1
5.2 5.3 4.7 3.6 2.2 2.0 2.3 2.4 3.0 3.5 3.7 3.3 3.2 3.3 3.5 2.5 3.0 2.3 1.9 1.2 0.7 0.8 0.9 0.9 -0.3 -0.5 -0.1 -0.2 -0.5 -1.2 -0.8 -1.1 -1.5 -1.0 -1.0 -0.6 -0.8 -0.1 0.5 1.0 1.3 3.0 4.4
5.1 5.2 5.2 4.4 3.2 2.6 1.5 2.0 3.1 4.1 3.6 3.2 3.6 3.7 4.1 3.3 3.4 3.2 2.7 2.0 1.2 1.1 1.9 1.8 1.1 1.0 1.1 0.8 0.2 -0.3 -0.6 -0.2 -0.8 -0.8 -0.6 -1.0 -1.0 -0.6 -0.4 0.4 0.7 2.0 4.5
3.1 4.4 5.7 5.4 4.6 3.4 2.7 2.0 2.5 3.4 3.8 3.1 3.2 4.0 4.1 4.1 3.7 3.7 3.0 3.0 2.3 3.4 2.5 2.0 1.3 1.7 1.6 1.0 0.5 -0.1 -0.4 -0.2 0.3 -0.6 -0.6 0.1 -0.2 -1.0 -0.8 -0.3 0.4 0.4 2.8
3.9 3.7 3.7 5.0 5.6 4.6 3.2 2.1 2.7 3.4 3.9 3.5 3.3 4.0 4.3 4.5 4.6 4.2 2.9 3.6 3.8 3.9 2.9 2.6 2.8 2.2 1.9 1.6 1.1 0.7 0.6 0.7 0.9 0.6 0.6 1.1 0.7 0.2 0.1 0.3 1.0 1.2 1.7
4.3 4.0 4.3 3.7 4.4 4.7 3.1 2.1 2.7 2.8 2.5 2.9 3.5 3.5 3.9 3.8 3.2 3.7 3.4 3.3 3.5 4.2 4.3 4.2 3.9 3.8 3.5 2.9 2.2 1.6 1.8 1.7 2.5 2.6 1.7 2.4 2.5 1.6 1.6 1.7 1.6 2.0 3.1
4.2 4.1 4.5 4.3 3.6 4.0 2.9 2.3 2.3 2.7 2.3 2.0 2.3 2.8 2.9 3.2 3.0 2.7 3.1 2.6 3.1 3.4 4.0 4.3 5.1 4.9 4.2 3.5 3.5 3.3 2.9 2.4 3.2 1.9 0.9 1.3 4.5 3.0 3.5 4.1 5.0 4.5 5.2
5.0 4.0 3.7 3.9 3.8 3.4 4.1 3.6 3.2 3.0 2.6 2.8 2.8 2.7 3.1 3.1 2.5 2.6 3.0 3.1 3.5 2.9 4.0 5.3 5.7 4.8 4.4 3.9 3.7 3.7 2.9 1.9 0.3 -0.9 -0.9 0.1 0.7 0.0 0.9 2.2 4.0 5.1 6.5
4.8 3.4 3.7 3.8 4.2 3.9 3.9 4.3 3.3 3.8 4.1 4.2 3.8 3.4 3.1 2.2 2.1 2.4 3.2 3.1 3.5 3.8 4.7 5.1 5.5 5.3 5.0 4.8 5.1 3.9 1.9 1.3 0.1 -1.0 -0.8 -0.3 0.4 0.0 0.2 0.8 1.3 3.2 3.9
5.1 4.8 4.3 3.9 4.0 4.1 4.0 4.3 4.3 3.6 4.3 4.8 4.2 4.0 3.4 3.0 2.7 3.0 3.6 3.9 4.3 3.7 4.7 4.8 5.1 4.5 4.3 3.9 3.7 4.5 3.4 1.5 -0.2 -0.6 0.0 0.4 1.1 1.3 1.2 1.2 1.1 1.3 1.6
5.7 5.3 5.3 4.9 4.6 4.5 4.2 4.6 4.6 4.0 3.3 4.7 4.7 3.5 3.2 3.4 3.0 3.5 4.1 4.0 3.5 3.5 4.4 4.8 3.9 2.3 2.4 2.8 5.4 5.2 3.1 2.5 0.8 0.6 0.9 1.3 1.4 1.2 1.5 1.4 1.3 0.9 1.0
5.2 4.6 4.1 3.9 4.6 5.1 3.6 3.8 3.5 3.1 3.6 3.8 3.4 3.1 2.8 3.1 3.4 3.2 2.9 2.3 2.6 3.4 3.9 2.9 1.7 1.2 2.4 5.6 7.4 6.7 4.5 3.6 2.5 1.4 1.5 2.4 1.9 1.3 0.7 -0.1 -0.1 0.3 0.2
4.9 4.0 2.7 2.6 2.6 2.7 2.9 3.4 3.7 3.4 2.2 2.3 2.3 1.8 1.6 1.7 1.7 2.2 2.5 2.7 2.9 3.3 3.6 2.4 3.1 2.6 4.5 6.2 5.4 5.4 3.7 2.1 1.8 0.4 0.7 1.1 1.3 1.4 0.4 -0.3 -1.0 -1.5 -0.9
4.7 3.7 3.3 1.4 0.8 0.9 2.2 2.2 1.1 1.3 1.4 1.5 1.2 1.3 1.6 1.7 2.7 3.5 3.4 3.2 4.0 4.1 3.2 3.2 3.2 3.4 5.3 6.4 5.4 4.8 2.6 1.7 1.9 1.4 0.8 1.9 1.3 2.2 1.8 0.4 -0.5 -2.2 -3.8
3.8 3.6 1.0 -0.1 0.6 0.5 0.3 0.5 2.1 1.6 1.3 1.4 1.5 1.7 1.8 2.9 3.8 3.4 3.8 4.2 4.3 4.4 3.7 3.4 3.6 5.3 4.9 6.4 5.8 4.0 2.0 1.4 0.8 0.6 1.4 2.7 1.8 2.9 1.2 -1.6 -1.9 -2.2 -4.4
2.8 4.2 2.0 1.3 -0.2 -0.4 -0.3 1.3 1.6 1.5 1.4 1.9 2.2 2.4 2.7 3.0 2.9 3.0 3.8 4.1 4.0 3.7 3.5 3.5 4.0 4.5 4.3 5.3 6.3 4.6 2.1 1.1 0.2 0.3 0.4 0.5 3.1 3.0 2.8 1.4 -1.6 -2.8 -3.2
3.6 5.1 2.9 1.6 0.5 0.5 0.7 2.2 1.7 0.9 1.4 2.3 2.8 2.8 2.8 3.0 3.3 3.6 4.0 4.3 4.2 4.1 4.1 4.0 4.0 4.3 4.4 6.1 6.5 6.0 4.7 3.0 0.7 -0.3 -0.5 0.7 3.0 3.1 3.0 1.4 3.6 3.1 0.3
2.9 5.0 2.5 1.6 2.0 3.4 3.8 3.0 1.5 1.4 2.1 2.8 2.8 2.9 3.1 3.4 3.8 3.8 4.3 4.8 4.7 4.6 4.5 4.5 4.1 4.3 4.4 3.7 6.8 7.1 6.9 3.9 1.0 0.5 1.7 2.9 3.5 3.9 4.0 4.5 3.3 0.9 -2.2
3.6 5.9 3.6 2.7 2.6 4.1 4.3 2.7 1.4 2.3 2.7 2.7 2.8 3.0 3.5 3.7 4.0 4.5 4.5 4.8 5.0 5.2 5.4 5.3 4.8 4.0 3.4 2.9 3.7 4.2 4.5 3.9 2.8 2.9 0.5 0.1 0.8 1.0 -0.2 -0.1 0.7 0.6 -2.5
4.1 6.2 5.0 4.9 3.2 3.3 2.7 1.6 1.7 2.5 3.0 3.3 3.2 3.4 4.1 4.1 4.6 5.0 4.9 5.1 5.3 5.4 5.5 5.5 4.7 3.5 2.4 2.2 3.5 2.8 1.6 1.2 0.8 -1.3 -3.5 -3.4 -3.6 -3.6 -3.4 -3.5 -2.3 -2.6 -2.3
5.3 6.1 5.6 4.3 3.1 2.6 2.8 3.2 3.0 3.6 3.5 3.8 4.1 3.6 4.1 4.5 5.0 5.3 5.6 6.1 6.3 7.0 7.6 6.6 5.1 4.5 5.1 5.3 6.2 5.8 4.8 3.8 2.3 -0.8 -2.5 -3.0 -2.8 -0.7 -0.9 -0.2 -0.4 -0.3 -0.0
Wind_Speed
12 16 15 20 19 18 18 17 14 9 6 3 3 3 2 2 3 6 10 9 5 5 10 6 5 8 5 4 3 2 2 4 4 2 3 3 4 6 5 8 9 9 12
7 8 15 20 20 21 19 18 17 16 10 6 3 3 3 2 3 5 5 7 4 4 8 7 5 5 5 5 4 4 2 2 3 2 1 2 4 5 5 6 8 10 19
7 8 16 17 18 20 21 19 18 17 13 10 5 4 4 3 3 3 3 1 2 4 7 9 6 4 5 4 3 3 5 3 2 5 3 2 3 4 4 6 7 9 8
18 9 10 15 19 17 14 14 14 13 9 8 6 10 5 4 3 3 2 2 2 3 6 8 8 6 4 5 4 3 3 4 3 2 4 5 3 3 3 3 4 7 9
14 14 6 7 9 10 11 12 12 11 8 8 8 8 6 4 4 4 7 4 1 2 5 8 10 6 5 5 6 6 6 4 5 3 2 5 4 5 3 3 2 6 6
15 20 13 14 11 8 8 8 10 10 8 7 8 9 9 7 6 7 6 4 3 2 3 9 9 8 6 5 5 6 7 6 6 6 6 4 3 2 3 3 1 3 3
13 14 12 10 8 9 9 8 8 8 9 8 9 9 9 9 13 11 8 7 4 3 4 5 5 4 7 8 8 6 6 5 6 7 6 5 4 3 2 2 1 2 3
8 9 9 7 5 8 8 7 7 6 8 8 8 7 8 7 8 10 8 7 6 5 6 6 8 9 10 8 9 5 5 5 5 8 7 6 4 4 4 2 1 1 1
8 10 7 4 3 6 7 9 8 7 7 8 7 7 6 8 8 10 7 7 7 6 6 8 5 7 8 8 7 4 5 6 4 6 6 5 4 5 4 4 3 2 1
8 8 8 6 4 4 5 3 4 5 4 5 6 5 5 6 7 7 7 10 10 8 8 6 6 6 6 8 6 5 6 7 4 5 7 5 3 5 4 3 3 2 2
6 6 5 6 6 4 5 6 6 7 5 5 4 5 5 5 7 7 8 10 9 10 7 6 5 5 5 5 5 6 8 9 6 4 6 6 6 4 4 3 2 2 2
7 7 6 6 7 6 5 7 7 7 7 7 6 5 6 7 8 8 8 8 9 6 9 7 5 5 5 5 6 7 7 8 7 6 9 7 4 5 5 2 2 3 3
6 6 6 7 7 7 4 4 4 7 5 6 7 8 7 7 8 10 10 9 9 7 7 7 6 6 5 6 5 7 8 9 9 10 10 7 7 5 3 5 3 1 2
7 6 7 7 6 6 5 2 2 3 5 5 7 8 10 12 11 10 11 11 10 10 9 7 5 6 7 7 7 8 10 10 9 10 10 8 8 6 5 6 4 4 4
8 8 7 6 6 6 4 4 3 6 6 6 7 9 8 10 11 11 11 11 11 9 9 8 7 7 7 5 8 7 10 10 10 10 10 10 14 15 12 4 4 4 4
7 8 7 7 6 5 5 3 3 6 6 6 6 7 10 11 11 10 9 11 9 10 10 10 8 7 4 4 9 8 10 9 10 10 9 11 14 17 19 18 20 14 6
7 7 7 6 4 0 3 1 3 4 5 4 6 9 11 11 10 11 11 11 11 10 10 8 7 7 4 7 11 12 8 8 9 10 8 8 10 13 12 16 18 20 21
6 5 6 5 4 3 3 1 2 3 3 5 7 8 11 12 11 10 12 12 11 12 10 10 8 7 4 16 21 20 10 11 10 10 9 7 4 11 11 10 11 8 10
5 4 3 6 5 6 1 4 3 4 5 5 7 7 8 10 9 10 9 8 8 8 9 8 8 7 4 16 21 15 10 10 9 9 10 7 5 15 16 10 8 3 3
2 4 4 7 6 5 3 2 3 4 5 7 8 8 9 10 8 7 8 6 7 9 9 9 7 9 4 17 18 14 7 9 7 8 8 11 9 15 17 8 5 5 1
8 4 6 3 3 4 2 2 4 3 6 8 9 9 9 10 10 10 10 9 10 11 10 9 6 6 5 6 17 18 7 7 7 6 4 3 12 14 16 13 4 5 6
9 3 4 4 4 2 3 2 4 5 8 9 10 9 10 8 9 12 9 10 11 10 10 9 7 3 3 8 9 17 16 17 9 7 3 7 15 16 16 10 11 13 12
5 4 5 6 3 1 3 4 4 8 9 9 9 9 10 9 9 11 10 8 9 8 8 7 6 4 2 2 10 11 19 22 8 9 13 15 15 15 11 12 12 10 3
4 2 6 6 2 1 3 4 7 7 9 10 10 8 9 8 8 6 7 6 7 7 7 7 7 6 4 3 3 5 12 18 13 15 10 11 9 6 5 8 7 8 4
4 4 5 4 3 2 1 4 7 9 9 8 8 8 6 8 7 6 6 7 5 6 6 6 8 7 5 3 10 10 6 6 9 9 3 2 2 2 2 2 2 1 2
3 6 4 5 3 2 2 4 6 8 10 8 6 7 6 6 6 7 6 4 7 13 13 16 12 7 12 18 18 16 17 19 18 3 3 2 2 3 2 3 2 2 3
Wind_Direction
205 188 164 150 138 142 140 140 132 138 128 103 106 77 139 108 90 121 130 132 143 115 135 131 101 105 100 92 59 27 75 24 4 44 13 30 88 104 99 97 87 80 82
204 175 152 152 150 152 145 144 148 149 150 148 150 145 150 99 115 103 99 130 142 117 130 130 118 127 107 85 59 65 58 88 31 105 82 92 22 48 55 64 69 75 76
232 140 154 155 147 151 157 158 157 154 152 158 150 123 86 65 63 54 71 47 159 113 106 123 108 117 121 117 98 81 98 130 32 68 134 124 167 114 38 42 72 75 79
33 28 152 146 155 157 144 141 143 149 155 160 151 154 146 149 160 145 129 69 86 78 99 99 103 89 88 96 95 73 73 106 102 66 36 58 103 127 148 6 65 94 76
37 30 138 93 68 111 116 129 140 154 165 164 152 148 142 157 142 129 131 124 93 124 117 116 109 101 97 89 75 62 66 73 89 76 49 64 52 45 108 138 48 81 70
32 38 76 86 83 82 94 113 142 164 169 155 148 152 154 157 134 146 146 152 158 182 138 118 114 111 108 104 99 87 82 78 84 82 70 77 86 48 77 95 10 108 56
53 46 63 99 111 129 150 167 161 158 171 159 157 161 171 158 155 166 161 159 163 164 162 127 116 109 114 111 103 91 85 88 94 102 96 80 66 52 60 81 89 101 168
62 65 49 68 160 175 177 170 170 157 158 161 168 166 172 164 165 172 164 165 163 161 161 133 128 124 120 112 111 103 99 85 89 103 102 99 88 77 67 87 77 39 77
71 72 58 49 47 219 199 180 178 170 160 168 170 176 176 166 163 174 166 163 145 143 136 136 130 132 123 121 112 116 111 108 93 101 111 108 101 98 93 85 86 116 116
87 75 83 65 347 39 199 170 147 154 161 150 170 174 174 164 154 158 141 140 143 137 135 130 130 135 130 125 116 110 101 104 88 99 99 94 115 114 109 111 106 90 127
105 105 89 92 74 95 108 113 109 105 94 121 132 133 136 126 121 124 125 128 124 132 127 133 131 132 124 121 113 110 112 107 98 102 103 101 106 115 124 142 138 146 171
161 156 155 114 77 52 125 153 165 158 154 143 136 141 131 124 118 119 120 120 126 117 127 131 131 108 116 118 125 124 123 116 116 89 74 49 102 77 83 106 68 178 194
172 200 109 89 81 73 94 207 211 185 168 163 156 146 139 128 129 131 127 122 123 115 109 108 117 125 123 111 99 110 100 97 89 83 76 59 64 54 31 60 29 17 79
235 104 116 111 113 94 82 37 218 236 204 185 178 169 165 152 145 141 132 126 122 118 121 109 124 124 125 121 113 105 102 91 88 84 77 69 63 49 60 59 15 4 75
112 126 133 146 137 122 133 140 197 210 218 195 186 182 144 140 136 140 134 127 122 118 118 111 94 73 79 67 108 114 111 106 96 87 90 83 79 74 68 67 15 32 64
128 96 90 102 117 163 184 174 236 236 202 190 192 144 141 141 141 136 124 114 106 103 109 108 100 86 95 62 161 142 129 127 114 113 104 96 92 83 81 75 67 60 65
93 83 73 59 27 212 99 33 309 282 233 185 136 142 139 138 135 131 126 131 128 121 113 105 113 114 101 204 149 122 129 128 132 133 133 127 115 101 90 75 69 70 72
72 82 85 58 16 26 47 55 344 263 147 127 128 136 141 141 145 141 142 140 142 147 149 130 127 114 103 121 112 105 102 96 93 96 102 102 114 131 108 93 81 75 82
49 54 40 71 15 359 136 102 89 101 121 132 130 140 139 133 136 128 134 139 136 119 116 118 125 124 135 120 110 104 93 89 90 91 90 90 76 126 120 111 107 72 33
48 44 46 52 35 18 47 123 124 140 133 136 135 131 131 127 131 127 119 116 110 111 113 109 121 121 106 124 115 108 109 105 98 86 94 109 113 118 118 113 125 112 141
342 84 78 68 82 45 55 132 113 124 128 128 132 133 129 133 128 119 120 117 112 118 120 124 128 104 96 104 144 138 129 130 115 112 102 101 125 120 132 130 138 150 139
299 113 121 62 66 110 122 137 124 132 134 137 135 133 131 131 131 130 132 127 128 125 126 128 122 105 94 105 127 160 147 140 129 129 119 122 121 124 128 134 125 121 117
289 212 119 98 63 193 155 164 147 146 141 133 134 137 136 136 139 136 138 134 133 134 134 136 137 127 97 62 105 120 142 132 120 129 132 125 126 127 127 125 101 99 93
264 193 135 99 138 176 186 153 151 155 142 139 139 142 138 135 135 134 135 138 141 141 146 149 147 141 127 108 93 92 117 121 124 129 110 109 120 116 79 89 87 86 103
222 111 96 111 120 89 115 149 153 145 142 140 139 134 140 137 134 132 142 141 141 155 161 158 152 152 154 168 141 135 124 125 124 108 78 74 80 88 81 56 81 55 66
83 84 105 110 125 122 139 135 137 145 138 137 140 136 136 138 134 130 127 143 173 188 173 159 157 162 163 170 164 152 146 143 141 103 127 179 167 150 163 152 130 92 86